Location: Newark
(39.0083°N, 20.7336°E)
Time: 19:54:23
(UTC+00:00)

N. Korean satellite - Pass Details

Date: 21 September 2021
Orbit: 450 x 495 km, 97.3° (Epoch: 25 October)

Event Time Altitude Azimuth Distance (km) Brightness Sun altitude
Rises 03:50:51 0° 12° (NNE) 2,513 10.5 -7.2°
Reaches altitude 10° 03:52:54 10° 13° (NNE) 1,639 9.5 -6.8°
Maximum altitude 03:56:25 84° 99° (E) 484 6.6 -6.1°
Drops below altitude 10° 03:59:59 10° 191° (S) 1,652 9.1 -5.5°
Sets 04:02:03 0° 192° (SSW) 2,535 10.0 -5.1°
